EW4725 Weather Reports


time (UTC)temp
C
wind
direction
speed
KPH
gust
KPH
rain 1hr
cm
rain 24hr
cm
rain mn
cm
humidity
%
barometer
mb
20260507230615 22 260 6.4 9.7 0.00 0.00 0.00 65 1013.6
20260507230115 22 283 6.4 11.3 0.00 0.00 0.00 65 1013.7
20260507225616 22 283 6.4 11.3 0.00 0.00 0.00 66 1013.6
20260507225115 22 260 11.3 17.7 0.00 0.00 0.00 65 1013.6
20260507224615 22 260 6.4 11.3 0.00 0.00 0.00 65 1013.7
20260507224216 22 283 8.0 11.3 0.00 0.00 0.00 66 1013.7
20260507223655 22 305 8.0 16.1 0.00 0.00 0.00 64 1013.8
20260507223115 22 283 9.7 12.9 0.00 0.00 0.00 64 1013.9
20260507222635 22 283 9.7 14.5 0.00 0.00 0.00 64 1013.8
20260507222115 23 305 8.0 19.3 0.00 0.00 0.00 63 1013.9
20260507221615 23 283 9.7 12.9 0.00 0.00 0.00 62 1014.0
20260507221115 23 305 8.0 12.9 0.00 0.00 0.00 63 1014.0
20260507220615 23 260 9.7 14.5 0.00 0.00 0.00 61 1014.1
20260507220115 23 283 8.0 11.3 0.00 0.00 0.00 62 1014.1
20260507215636 23 283 8.0 11.3 0.00 0.00 0.00 61 1014.1
20260507215115 23 283 6.4 12.9 0.00 0.00 0.00 62 1014.1
20260507214615 23 260 8.0 9.7 0.00 0.00 0.00 61 1014.3
20260507214115 24 260 8.0 11.3 0.00 0.00 0.00 60 1014.3
20260507213656 24 260 4.8 8.0 0.00 0.00 0.00 61 1014.3
20260507213135 24 238 6.4 11.3 0.00 0.00 0.00 60 1014.3
20260507212615 23 148 1.6 4.8 0.00 0.00 0.00 59 1014.3
20260507212115 23 238 6.4 12.9 0.00 0.00 0.00 60 1014.4
20260507211615 23 215 4.8 6.4 0.00 0.00 0.00 60 1014.5
20260507211115 24 148 3.2 4.8 0.00 0.00 0.00 59 1014.5
20260507210615 23 238 6.4 11.3 0.00 0.00 0.00 59 1014.6
20260507210115 24 170 6.4 9.7 0.00 0.00 0.00 59 1014.7
20260507205615 23 260 6.4 11.3 0.00 0.00 0.00 58 1014.8
20260507205115 23 148 8.0 14.5 0.00 0.00 0.00 60 1014.8
20260507204615 23 170 8.0 9.7 0.00 0.00 0.00 60 1014.8
20260507204115 23 215 3.2 4.8 0.00 0.00 0.00 61 1014.9
20260507203615 22 148 3.2 4.8 0.00 0.00 0.00 62 1014.9
20260507203115 22 215 6.4 11.3 0.00 0.00 0.00 61 1014.9
20260507202615 23 148 4.8 9.7 0.00 0.00 0.00 62 1014.9
20260507202115 23 148 3.2 6.4 0.00 0.00 0.00 63 1014.9
20260507201615 22 215 6.4 11.3 0.00 0.00 0.00 63 1015.0
20260507201115 22 125 8.0 12.9 0.00 0.00 0.00 62 1015.1
20260507200617 22 148 6.4 11.3 0.00 0.00 0.00 62 1015.2
20260507200137 23 148 4.8 6.4 0.00 0.00 0.00 61 1015.3
20260507195617 23 148 4.8 8.0 0.00 0.00 0.00 60 1015.3
20260507195115 23 283 4.8 6.4 0.00 0.00 0.00 62 1015.4
20260507194637 22 260 8.0 14.5 0.00 0.00 0.00 63 1015.4
20260507194117 22 215 4.8 6.4 0.00 0.00 0.00 64 1015.5
20260507193616 22 148 9.7 14.5 0.00 0.00 0.00 64 1015.5
20260507193115 22 125 9.7 12.9 0.00 0.00 0.00 64 1015.4
20260507192617 22 238 6.4 11.3 0.00 0.00 0.00 63 1015.5
20260507192117 22 148 11.3 14.5 0.00 0.00 0.00 63 1015.6
20260507191617 22 238 6.4 9.7 0.00 0.00 0.00 64 1015.6
20260507191117 22 170 6.4 9.7 0.00 0.00 0.00 64 1015.7
20260507190657 22 148 6.4 9.7 0.00 0.00 0.00 64 1015.8
20260507190137 22 170 8.0 11.3 0.00 0.00 0.00 63 1015.7
20260507185617 22 125 3.2 6.4 0.00 0.00 0.00 63 1015.8
20260507185117 22 148 6.4 9.7 0.00 0.00 0.00 63 1015.9
20260507184617 22 125 4.8 6.4 0.00 0.00 0.00 63 1015.9
20260507184157 22 125 6.4 11.3 0.00 0.00 0.00 63 1015.9
20260507183617 22 148 1.6 6.4 0.00 0.00 0.00 64 1015.9
20260507183115 22 238 4.8 9.7 0.00 0.00 0.00 63 1016.0
20260507182617 21 0.0 3.2 0.00 0.00 0.00 64 1016.0
20260507182117 22 148 6.4 8.0 0.00 0.00 0.00 64 1016.1
20260507181617 22 148 4.8 11.3 0.00 0.00 0.00 64 1016.0
20260507181117 21 215 6.4 9.7 0.00 0.00 0.00 64 1016.1
20260507180617 22 148 3.2 6.4 0.00 0.00 0.00 64 1016.1
20260507180117 21 80 3.2 6.4 0.00 0.00 0.00 65 1016.1
20260507175617 21 148 4.8 6.4 0.00 0.00 0.00 65 1016.0
20260507175117 21 148 8.0 12.9 0.00 0.00 0.00 64 1016.1
20260507174617 22 215 6.4 9.7 0.00 0.00 0.00 63 1016.1
20260507174117 22 148 3.2 8.0 0.00 0.00 0.00 65 1016.2
20260507173617 21 125 3.2 4.8 0.00 0.00 0.00 66 1016.2
20260507173117 21 125 3.2 8.0 0.00 0.00 0.00 66 1016.2
20260507172617 21 260 3.2 4.8 0.00 0.00 0.00 66 1016.2
20260507172117 21 215 3.2 6.4 0.00 0.00 0.00 67 1016.2
20260507171617 21 260 4.8 6.4 0.00 0.00 0.00 66 1016.2
20260507171137 21 125 4.8 8.0 0.00 0.00 0.00 66 1016.2
20260507170617 21 125 9.7 12.9 0.00 0.00 0.00 64 1016.2
20260507170117 21 260 1.6 4.8 0.00 0.00 0.00 65 1016.2
20260507165617 21 238 4.8 8.0 0.00 0.00 0.00 66 1016.2
20260507165117 21 215 3.2 4.8 0.00 0.00 0.00 66 1016.2
20260507164617 21 170 1.6 3.2 0.00 0.00 0.00 67 1016.2
20260507164117 21 305 1.6 4.8 0.00 0.00 0.00 68 1016.3
20260507163617 21 148 4.8 6.4 0.00 0.00 0.00 68 1016.3
20260507163117 21 148 3.2 4.8 0.00 0.00 0.00 68 1016.4
20260507162737 21 0.0 1.6 0.00 0.00 0.00 69 1016.4
20260507162137 20 0.0 0.0 0.00 0.00 0.00 71 1016.4
20260507161617 20 103 1.6 3.2 0.00 0.00 0.00 71 1016.5
20260507161116 20 125 4.8 6.4 0.00 0.00 0.00 70 1016.5
20260507160617 20 148 3.2 6.4 0.00 0.00 0.00 69 1016.5
20260507160116 20 0.0 1.6 0.00 0.00 0.00 72 1016.5
20260507155617 20 0.0 0.0 0.00 0.00 0.00 75 1016.6
20260507155116 19 0.0 0.0 0.00 0.00 0.00 77 1016.6
20260507154616 19 0.0 1.6 0.00 0.00 0.00 76 1016.6
20260507154116 18 35 1.6 1.6 0.00 0.00 0.00 78 1016.6
20260507153617 18 13 1.6 1.6 0.00 0.00 0.00 80 1016.6
20260507153116 17 0.0 1.6 0.00 0.00 0.00 79 1016.5
20260507152617 18 0.0 1.6 0.00 0.00 0.00 81 1016.6
20260507152117 18 0.0 0.0 0.00 0.00 0.00 82 1016.7
20260507151637 17 13 1.6 3.2 0.00 0.00 0.00 81 1016.7
20260507151116 17 0.0 0.0 0.00 0.00 0.00 86 1016.7
20260507150616 16 305 1.6 1.6 0.00 0.00 0.00 84 1016.7
20260507150117 16 305 1.6 1.6 0.00 0.00 0.00 85 1016.7
20260507145617 16 283 1.6 1.6 0.00 0.00 0.00 86 1016.7
20260507145137 16 0.0 1.6 0.00 0.00 0.00 87 1016.6
20260507144617 15 305 1.6 3.2 0.00 0.00 0.00 88 1016.7
20260507144117 15 260 3.2 3.2 0.00 0.00 0.00 89 1016.6
20260507143616 15 0.0 1.6 0.00 0.00 0.00 90 1016.6
20260507143116 15 260 1.6 3.2 0.00 0.00 0.00 91 1016.5
20260507142637 15 0.0 1.6 0.00 0.00 0.00 92 1016.5
20260507142117 15 0.0 1.6 0.00 0.00 0.00 93 1016.4
20260507141617 14 0.0 1.6 0.00 0.00 0.00 94 1016.4
20260507141117 14 0.0 0.0 0.00 0.00 0.00 95 1016.3
20260507140616 13 0.0 0.0 0.00 0.00 0.00 95 1016.4
20260507140116 13 0.0 0.0 0.00 0.00 0.00 95 1016.3
20260507135617 13 0.0 0.0 0.00 0.00 0.00 95 1016.2
20260507135117 13 0.0 0.0 0.00 0.00 0.00 95 1016.2
20260507134616 13 0.0 0.0 0.00 0.00 0.00 95 1016.1
20260507134137 13 0.0 0.0 0.00 0.00 0.00 95 1016.0
20260507133616 13 0.0 0.0 0.00 0.00 0.00 95 1016.0
20260507133137 12 0.0 0.0 0.00 0.00 0.00 95 1016.0
20260507132616 12 0.0 0.0 0.00 0.00 0.00 95 1015.9
20260507132136 12 0.0 0.0 0.00 0.00 0.00 95 1016.0
20260507131617 12 0.0 0.0 0.00 0.00 0.00 95 1015.9
20260507131117 12 0.0 0.0 0.00 0.00 0.00 95 1015.9
20260507130617 12 0.0 0.0 0.00 0.00 0.00 95 1015.8
20260507130117 12 0.0 0.0 0.00 0.00 0.00 95 1015.8
20260507125616 12 0.0 0.0 0.00 0.00 0.00 94 1015.7
20260507125117 12 0.0 0.0 0.00 0.00 0.00 94 1015.6
20260507124616 12 0.0 0.0 0.00 0.00 0.00 95 1015.6
20260507124116 12 0.0 0.0 0.00 0.00 0.00 94 1015.6
20260507123616 12 0.0 0.0 0.00 0.00 0.00 94 1015.7
20260507123117 12 0.0 0.0 0.00 0.00 0.00 94 1015.7
20260507122656 12 0.0 0.0 0.00 0.00 0.00 94 1015.6
20260507122116 12 0.0 0.0 0.00 0.00 0.00 94 1015.7
20260507121616 12 0.0 0.0 0.00 0.00 0.00 94 1015.7
20260507121117 12 0.0 0.0 0.00 0.00 0.00 94 1015.7
20260507120616 12 0.0 0.0 0.00 0.00 0.00 93 1015.7
20260507120116 12 0.0 0.0 0.00 0.00 0.00 93 1015.8
20260507115636 12 0.0 0.0 0.00 0.00 0.00 93 1015.8
20260507115116 13 0.0 0.0 0.00 0.00 0.00 93 1015.8
20260507114616 13 0.0 0.0 0.00 0.00 0.00 93 1015.8
20260507114116 13 0.0 0.0 0.00 0.00 0.00 94 1015.8
20260507113616 13 0.0 0.0 0.00 0.00 0.00 94 1015.8
20260507113116 13 0.0 0.0 0.00 0.00 0.00 93 1015.8
20260507112637 13 0.0 0.0 0.00 0.00 0.00 93 1015.7
20260507112116 13 0.0 0.0 0.00 0.00 0.00 93 1015.8
20260507111616 13 0.0 0.0 0.00 0.00 0.00 93 1015.8
20260507111117 13 0.0 0.0 0.00 0.00 0.00 93 1015.8
20260507110616 13 0.0 0.0 0.00 0.00 0.00 94 1015.9
20260507110116 13 0.0 0.0 0.00 0.00 0.00 94 1015.9
20260507105616 12 0.0 0.0 0.00 0.00 0.00 93 1016.0
20260507105116 12 0.0 0.0 0.00 0.00 0.00 93 1016.0
20260507104616 12 0.0 0.0 0.00 0.00 0.00 93 1016.1
20260507104156 13 0.0 0.0 0.00 0.00 0.00 93 1016.1
20260507103616 13 0.0 0.0 0.00 0.00 0.00 93 1016.1
20260507103136 13 0.0 0.0 0.00 0.00 0.00 93 1016.1
20260507102616 13 0.0 0.0 0.00 0.00 0.00 93 1016.2
20260507102116 13 0.0 0.0 0.00 0.00 0.00 92 1016.2
20260507101616 13 0.0 0.0 0.00 0.00 0.00 92 1016.2
20260507101116 13 0.0 0.0 0.00 0.00 0.00 93 1016.2
20260507100616 13 0.0 0.0 0.00 0.00 0.00 92 1016.1
20260507100116 13 0.0 0.0 0.00 0.00 0.00 93 1016.1
20260507095616 13 0.0 0.0 0.00 0.00 0.00 93 1016.2
20260507095116 13 0.0 0.0 0.00 0.00 0.00 92 1016.3
20260507094616 13 0.0 0.0 0.00 0.00 0.00 92 1016.3
20260507094116 13 0.0 0.0 0.00 0.00 0.00 92 1016.3
20260507093616 13 0.0 0.0 0.00 0.00 0.00 93 1016.4
20260507093136 13 0.0 0.0 0.00 0.00 0.00 92 1016.4
20260507092636 13 0.0 0.0 0.00 0.00 0.00 92 1016.5
20260507092116 13 0.0 0.0 0.00 0.00 0.00 92 1016.5
20260507091616 13 0.0 0.0 0.00 0.00 0.00 92 1016.5
20260507091116 13 0.0 0.0 0.00 0.00 0.00 92 1016.6
20260507090616 13 0.0 0.0 0.00 0.00 0.00 93 1016.7
20260507090116 13 0.0 0.0 0.00 0.00 0.00 93 1016.7
20260507085616 13 0.0 0.0 0.00 0.00 0.00 92 1016.8
20260507085136 13 0.0 0.0 0.00 0.00 0.00 92 1016.7
20260507084616 13 0.0 0.0 0.00 0.00 0.00 92 1016.8
20260507084116 13 0.0 0.0 0.00 0.00 0.00 92 1016.8
20260507083616 13 0.0 0.0 0.00 0.00 0.00 92 1016.9
20260507083116 13 0.0 0.0 0.00 0.00 0.00 91 1016.9
20260507082636 13 0.0 0.0 0.00 0.00 0.00 91 1016.9
20260507082116 13 0.0 0.0 0.00 0.00 0.00 91 1016.9
20260507081616 13 0.0 0.0 0.00 0.00 0.00 92 1016.9
20260507081116 13 0.0 0.0 0.00 0.00 0.00 91 1017.0
20260507080636 13 0.0 0.0 0.00 0.00 0.00 91 1017.1
20260507080156 13 0.0 0.0 0.00 0.00 0.00 90 1017.1
20260507075616 14 0.0 0.0 0.00 0.00 0.00 90 1017.1
20260507075116 14 0.0 0.0 0.00 0.00 0.00 90 1017.1
20260507074616 14 0.0 0.0 0.00 0.00 0.00 90 1017.1
20260507074116 14 0.0 0.0 0.00 0.00 0.00 89 1017.2
20260507073636 14 0.0 0.0 0.00 0.00 0.00 89 1017.1
20260507073116 14 0.0 0.0 0.00 0.00 0.00 89 1017.2
20260507072616 15 0.0 0.0 0.00 0.00 0.00 89 1017.3
20260507072116 15 0.0 0.0 0.00 0.00 0.00 88 1017.3
20260507071636 15 0.0 0.0 0.00 0.00 0.00 88 1017.3
20260507071116 15 283 1.6 1.6 0.00 0.00 0.00 88 1017.3
20260507070616 15 0.0 0.0 0.00 0.00 0.00 88 1017.2
20260507070136 15 0.0 1.6 0.00 0.00 0.00 88 1017.2
20260507065616 15 283 1.6 1.6 0.00 0.00 0.00 88 1017.2
20260507065116 15 260 1.6 3.2 0.00 0.00 0.00 88 1017.2
20260507064616 15 0.0 3.2 0.00 0.00 0.00 87 1017.2
20260507064116 15 0.0 0.0 0.00 0.00 0.00 87 1017.3
20260507063617 15 283 1.6 3.2 0.00 0.00 0.00 87 1017.3
20260507063116 15 260 1.6 3.2 0.00 0.00 0.00 87 1017.3
20260507062616 15 305 3.2 4.8 0.00 0.00 0.00 86 1017.3
20260507062116 15 283 4.8 6.4 0.00 0.00 0.00 86 1017.3
20260507061616 15 283 6.4 8.0 0.00 0.00 0.00 86 1017.3
20260507061116 15 283 3.2 4.8 0.00 0.00 0.00 86 1017.4
20260507060616 15 283 3.2 3.2 0.00 0.00 0.00 85 1017.4
20260507060116 15 283 4.8 8.0 0.00 0.00 0.00 85 1017.4
20260507055616 15 283 8.0 11.3 0.00 0.00 0.00 85 1017.4
20260507055116 15 283 3.2 4.8 0.00 0.00 0.00 84 1017.4
20260507054616 15 283 6.4 8.0 0.00 0.00 0.00 84 1017.4
20260507054116 15 260 6.4 11.3 0.00 0.00 0.00 84 1017.4
20260507053616 15 283 8.0 12.9 0.00 0.00 0.00 83 1017.3
20260507053117 15 283 6.4 11.3 0.00 0.00 0.00 83 1017.4
20260507052616 16 283 3.2 4.8 0.00 0.00 0.00 84 1017.3
20260507052116 16 283 3.2 4.8 0.00 0.00 0.00 84 1017.3
20260507051637 16 260 3.2 8.0 0.00 0.00 0.00 84 1017.3
20260507051116 16 283 6.4 9.7 0.00 0.00 0.00 84 1017.4
20260507050616 16 283 3.2 8.0 0.00 0.00 0.00 84 1017.3
20260507050117 16 260 1.6 3.2 0.00 0.00 0.00 84 1017.3
20260507045616 16 260 3.2 6.4 0.00 0.00 0.00 84 1017.2
20260507045136 16 305 4.8 6.4 0.00 0.00 0.00 84 1017.2
20260507044636 16 305 3.2 6.4 0.00 0.00 0.00 84 1017.2
20260507044116 16 305 1.6 4.8 0.00 0.00 0.00 83 1017.2
20260507043616 16 283 4.8 6.4 0.00 0.00 0.00 83 1017.2
20260507043136 16 283 1.6 1.6 0.00 0.00 0.00 82 1017.1
20260507042616 16 283 3.2 4.8 0.00 0.00 0.00 82 1017.1
20260507042116 16 305 6.4 9.7 0.00 0.00 0.00 82 1017.1
20260507041616 16 260 3.2 6.4 0.00 0.00 0.00 81 1017.0
20260507041116 16 283 1.6 4.8 0.00 0.00 0.00 81 1017.0
20260507040616 16 283 4.8 9.7 0.00 0.00 0.00 81 1017.0
20260507040116 16 283 4.8 6.4 0.00 0.00 0.00 81 1017.1
20260507035636 16 283 4.8 6.4 0.00 0.00 0.00 81 1017.0
20260507035116 16 260 6.4 9.7 0.00 0.00 0.00 81 1017.0
20260507034616 16 305 4.8 8.0 0.00 0.00 0.00 81 1016.9
20260507034116 16 305 6.4 11.3 0.00 0.00 0.00 81 1016.9
20260507033616 16 305 4.8 9.7 0.00 0.00 0.00 81 1016.8
20260507033116 16 260 6.4 9.7 0.00 0.00 0.00 80 1016.7
20260507032616 16 283 9.7 16.1 0.00 0.00 0.00 80 1016.7
20260507032116 16 305 8.0 11.3 0.00 0.00 0.00 79 1016.5
20260507031616 17 305 9.7 16.1 0.00 0.00 0.00 78 1016.5
20260507031136 17 283 8.0 14.5 0.00 0.00 0.00 77 1016.5
20260507030636 17 305 6.4 9.7 0.00 0.00 0.00 75 1016.5
20260507030116 17 305 4.8 8.0 0.00 0.00 0.00 74 1016.4
20260507025616 17 283 6.4 9.7 0.00 0.00 0.00 73 1016.3
20260507025136 17 283 3.2 4.8 0.00 0.00 0.00 73 1016.3
20260507024616 17 283 9.7 17.7 0.00 0.00 0.00 73 1016.3
20260507024116 17 260 4.8 9.7 0.00 0.00 0.00 73 1016.2
20260507023616 17 283 9.7 12.9 0.00 0.00 0.00 72 1016.2
20260507023116 17 283 6.4 8.0 0.00 0.00 0.00 74 1016.2
20260507022616 17 260 8.0 11.3 0.00 0.00 0.00 74 1016.1
20260507022136 17 283 4.8 8.0 0.00 0.00 0.00 73 1016.1
20260507021616 18 283 6.4 9.7 0.00 0.00 0.00 73 1016.1
20260507021116 18 283 9.7 14.5 0.00 0.00 0.00 72 1016.0
20260507020616 18 283 8.0 11.3 0.00 0.00 0.00 72 1016.0
20260507020116 18 305 6.4 9.7 0.00 0.00 0.00 71 1016.0
20260507015616 18 283 9.7 16.1 0.00 0.00 0.00 71 1016.0
20260507015116 18 260 9.7 14.5 0.00 0.00 0.00 71 1015.9
20260507014616 18 283 8.0 12.9 0.00 0.00 0.00 69 1015.9
20260507014116 18 283 9.7 12.9 0.00 0.00 0.00 68 1015.8
20260507013616 19 283 9.7 20.9 0.00 0.00 0.00 68 1015.8
20260507013136 18 260 11.3 16.1 0.00 0.00 0.00 69 1015.7
20260507012616 18 260 9.7 12.9 0.00 0.00 0.00 68 1015.7
20260507012116 19 283 14.5 19.3 0.00 0.00 0.00 68 1015.7
20260507011616 19 283 12.9 17.7 0.00 0.00 0.00 67 1015.6
20260507011136 19 260 14.5 19.3 0.00 0.00 0.00 66 1015.6
20260507010615 19 260 14.5 19.3 0.00 0.00 0.00 66 1015.6
20260507010116 19 260 12.9 16.1 0.00 0.00 0.00 67 1015.6
20260507005616 19 260 11.3 17.7 0.00 0.00 0.00 67 1015.6
20260507005116 20 260 14.5 20.9 0.00 0.00 0.00 66 1015.6
20260507004616 20 260 11.3 17.7 0.00 0.00 0.00 67 1015.5
20260507004116 19 260 11.3 19.3 0.00 0.00 0.00 68 1015.6
20260507003616 19 260 12.9 19.3 0.00 0.00 0.00 67 1015.6
20260507003116 20 283 16.1 19.3 0.00 0.00 0.00 65 1015.6
20260507002616 20 283 14.5 17.7 0.00 0.00 0.00 66 1015.6
20260507002115 20 260 9.7 17.7 0.00 0.00 0.00 66 1015.6
20260507001615 20 260 9.7 16.1 0.00 0.00 0.00 65 1015.6
20260507001115 20 283 11.3 19.3 0.00 0.00 0.00 63 1015.5
20260507000636 21 283 8.0 11.3 0.00 0.00 0.00 62 1015.4
20260507000115 21 283 11.3 16.1 0.00 0.00 0.00 62 1015.5
20260506235616 21 283 9.7 12.9 0.00 0.00 0.00 61 1015.4
20260506235135 21 260 12.9 19.3 0.00 0.00 0.00 60 1015.5
20260506234615 21 260 8.0 11.3 0.00 0.00 0.00 62 1015.4
20260506234115 21 260 16.1 25.7 0.00 0.00 0.00 59 1015.4
20260506233616 21 283 12.9 24.1 0.00 0.00 0.00 60 1015.3
20260506233135 21 305 9.7 14.5 0.00 0.00 0.00 61 1015.4
20260506232616 21 283 11.3 20.9 0.00 0.00 0.00 60 1015.4
20260506232115 21 283 14.5 20.9 0.00 0.00 0.00 59 1015.4
20260506231615 21 260 11.3 17.7 0.00 0.00 0.00 59 1015.4
20260506231116 21 260 11.3 19.3 0.00 0.00 0.00 59 1015.5